This is the latest recevied weather packets stored in our database for station/object DM8MH-13. If no packets are shown the sender has not sent any weather packets the latest 10 day(s).
| Time | Temp. | Humidity | Pressure | Rain* | Wind** | Luminosity | Snow |
|---|---|---|---|---|---|---|---|
| 1777809672 | 26.67° C | 29% | 1012 hPa | 0 mm | - | 624 W/m² | - |
| 1777809072 | 26.67° C | 28% | 1012.1 hPa | 0 mm | - | 792 W/m² | - |
| 1777808472 | 27.22° C | 26% | 1012.1 hPa | 0 mm | - | 798 W/m² | - |
| 1777807872 | 26.67° C | 28% | 1012.1 hPa | 0 mm | - | 759 W/m² | - |
| 1777807273 | 26.67° C | 33% | 1012.3 hPa | 0 mm | - | 691 W/m² | - |
| 1777806671 | 26.11° C | 33% | 1012.4 hPa | 0 mm | - | 669 W/m² | - |
| 1777806072 | 26.11° C | 40% | 1012.5 hPa | 0 mm | - | 711 W/m² | - |
| 1777805472 | 25.56° C | 41% | 1012.6 hPa | 0 mm | - | 759 W/m² | - |
| 1777804872 | 25.56° C | 41% | 1012.7 hPa | 0 mm | - | 550 W/m² | - |
| 1777804272 | 25.56° C | 41% | 1012.7 hPa | 0 mm | - | 742 W/m² | - |
| 1777803673 | 25.56° C | 42% | 1012.8 hPa | 0 mm | - | 744 W/m² | - |
| 1777803072 | 25° C | 41% | 1013 hPa | 0 mm | - | 791 W/m² | - |
| 1777802471 | 25° C | 40% | 1013 hPa | 0 mm | - | 783 W/m² | - |
| 1777801872 | 25° C | 40% | 1013.1 hPa | 0 mm | - | 755 W/m² | - |
| 1777801271 | 25° C | 38% | 1013.1 hPa | 0 mm | - | 707 W/m² | - |
| 1777800673 | 25° C | 43% | 1013.1 hPa | 0 mm | - | 679 W/m² | - |
| 1777800073 | 24.44° C | 44% | 1013.2 hPa | 0 mm | - | 726 W/m² | - |
| 1777799471 | 23.89° C | 46% | 1013.3 hPa | 0 mm | - | 671 W/m² | - |
| 1777798871 | 22.78° C | 49% | 1013.4 hPa | 0 mm | - | 660 W/m² | - |
| 1777798271 | 22.22° C | 50% | 1013.5 hPa | 0 mm | - | 582 W/m² | - |
| 1777797671 | 22.22° C | 53% | 1013.5 hPa | 0 mm | - | 512 W/m² | - |
| 1777797071 | 21.67° C | 52% | 1013.5 hPa | 0 mm | - | 534 W/m² | - |
| 1777796472 | 21.11° C | 56% | 1013.6 hPa | 0 mm | - | 517 W/m² | - |
| 1777795871 | 21.11° C | 53% | 1013.6 hPa | 0 mm | - | 472 W/m² | - |
| 1777795271 | 21.11° C | 54% | 1013.6 hPa | 0 mm | - | 476 W/m² | - |
* Rain latest hour (hover to see other rain measurements)
** Current wind speed in m/s (hover to see current wind gust speed)